FW8782 Weather Reports


Display with metric or nautical units.
time (UTC)temp
F
wind
direction
speed
MPH
gust
MPH
rain 1hr
in
rain 24hr
in
rain mn
in
humidity
%
barometer
mb
20260509070513 50 0 0.0 0.0 0.00 0.00 0.00 83 1023.0
20260509070033 50 0 0.0 0.0 0.00 0.00 0.00 83 1023.0
20260509065515 51 0 0.0 0.0 0.00 0.00 0.00 83 1023.0
20260509065012 51 0 0.0 0.0 0.00 0.00 0.00 83 1023.0
20260509064532 51 0 0.0 0.0 0.00 0.00 0.00 82 1022.9
20260509064011 51 0 0.0 0.0 0.00 0.00 0.00 82 1022.8
20260509063514 51 0 0.0 0.0 0.00 0.00 0.00 82 1022.8
20260509063034 51 0 0.0 0.0 0.00 0.00 0.00 82 1022.8
20260509062515 52 0 0.0 0.0 0.00 0.00 0.00 82 1022.8
20260509062017 52 0 0.0 0.0 0.00 0.00 0.00 82 1022.8
20260509061545 52 0 0.0 0.0 0.00 0.00 0.00 82 1022.8
20260509061013 52 0 0.0 0.0 0.00 0.00 0.00 82 1022.8
20260509060512 52 0 0.0 0.0 0.00 0.00 0.00 82 1022.7
20260509060037 52 0 0.0 0.0 0.00 0.00 0.00 82 1022.7
20260509055513 52 0 0.0 0.0 0.00 0.00 0.00 82 1022.6
20260509055019 52 0 0.0 0.0 0.00 0.00 0.00 82 1022.7
20260509054537 52 0 0.0 0.0 0.00 0.00 0.00 82 1022.7
20260509054015 52 0 0.0 0.0 0.00 0.00 0.00 81 1022.7
20260509053511 52 0 0.0 0.0 0.00 0.00 0.00 81 1022.7
20260509053035 52 0 0.0 0.0 0.00 0.00 0.00 80 1022.7
20260509052514 52 0 0.0 0.0 0.00 0.00 0.00 80 1022.7
20260509052016 52 0 0.0 0.0 0.00 0.00 0.00 80 1022.7
20260509051534 53 0 0.0 0.0 0.00 0.00 0.00 79 1022.7
20260509051016 53 0 0.0 0.0 0.00 0.00 0.00 79 1022.7
20260509050515 53 0 0.0 0.0 0.00 0.00 0.00 79 1022.6
20260509050047 53 0 0.0 0.0 0.00 0.00 0.00 78 1022.6
20260509045515 53 0 0.0 0.0 0.00 0.00 0.00 78 1022.6
20260509045014 54 0 0.0 0.0 0.00 0.00 0.00 78 1022.6
20260509044543 54 0 0.0 0.0 0.00 0.00 0.00 78 1022.5
20260509044014 54 0 0.0 0.0 0.00 0.00 0.00 77 1022.5
20260509043515 54 0 0.0 0.0 0.00 0.00 0.00 77 1022.4
20260509043030 54 0 0.0 0.0 0.00 0.00 0.00 76 1022.4
20260509042518 55 0 0.0 0.0 0.00 0.00 0.00 76 1022.4
20260509042014 55 0 0.0 0.0 0.00 0.00 0.00 76 1022.4
20260509041531 55 0 0.0 0.0 0.00 0.00 0.00 76 1022.5
20260509041015 55 0 0.0 0.0 0.00 0.00 0.00 76 1022.5
20260509040515 55 0 0.0 0.0 0.00 0.00 0.00 75 1022.5
20260509040032 55 0 0.0 0.0 0.00 0.00 0.00 75 1022.4
20260509035515 55 0 0.0 2.0 0.00 0.00 0.00 74 1022.3
20260509035015 56 0 0.0 2.0 0.00 0.00 0.00 74 1022.4
20260509034531 56 0 0.0 2.0 0.00 0.00 0.00 74 1022.3
20260509034014 56 0 0.0 2.0 0.00 0.00 0.00 73 1022.3
20260509033514 56 0 0.0 3.0 0.00 0.00 0.00 73 1022.2
20260509033032 56 0 0.0 3.0 0.00 0.00 0.00 73 1022.2
20260509032518 56 267 1.0 3.0 0.00 0.00 0.00 73 1022.2
20260509032014 56 0 0.0 2.0 0.00 0.00 0.00 73 1022.2
20260509031535 57 88 0.0 2.0 0.00 0.00 0.00 73 1022.2
20260509031013 57 281 0.0 2.0 0.00 0.00 0.00 72 1022.1
20260509030513 57 316 0.0 2.0 0.00 0.00 0.00 72 1022.1
20260509030034 57 306 0.0 3.0 0.00 0.00 0.00 71 1022.1
20260509025514 57 0 0.0 3.0 0.00 0.00 0.00 71 1022.1
20260509025015 57 337 0.0 3.0 0.00 0.00 0.00 71 1022.0
20260509024532 57 223 0.0 2.0 0.00 0.00 0.00 71 1022.1
20260509024017 57 0 0.0 4.0 0.00 0.00 0.00 71 1022.0
20260509023518 58 43 0.0 4.0 0.00 0.00 0.00 70 1022.0
20260509023041 58 0 0.0 4.0 0.00 0.00 0.00 70 1022.0
20260509022515 58 202 0.0 4.0 0.00 0.00 0.00 70 1021.9
20260509022015 58 232 1.0 4.0 0.00 0.00 0.00 69 1021.8
20260509021532 59 214 1.0 5.0 0.00 0.00 0.00 69 1021.8
20260509021012 59 24 1.0 6.0 0.00 0.00 0.00 69 1021.8
20260509020520 59 272 2.0 6.0 0.00 0.00 0.00 69 1021.9
20260509020034 59 260 0.0 3.0 0.00 0.00 0.00 68 1021.8
20260509015512 59 237 1.0 3.0 0.00 0.00 0.00 68 1021.8
20260509015016 59 186 0.0 3.0 0.00 0.00 0.00 68 1021.8
20260509014535 59 227 1.0 3.0 0.00 0.00 0.00 68 1021.8
20260509014012 59 184 1.0 4.0 0.00 0.00 0.00 68 1021.9
20260509013517 59 325 1.0 4.0 0.00 0.00 0.00 68 1021.9
20260509013053 59 266 1.0 4.0 0.00 0.00 0.00 68 1021.9
20260509012514 59 360 1.0 3.0 0.00 0.00 0.00 67 1022.0
20260509012017 60 0 1.0 3.0 0.00 0.00 0.00 67 1021.9
20260509011536 60 0 0.0 4.0 0.00 0.00 0.00 67 1022.0
20260509011015 60 244 1.0 7.0 0.00 0.00 0.00 67 1022.0
20260509010513 60 215 1.0 7.0 0.00 0.00 0.00 66 1022.1
20260509010032 61 289 2.0 7.0 0.00 0.00 0.00 66 1022.1
20260509005515 61 160 2.0 7.0 0.00 0.00 0.00 66 1022.1
20260509005016 60 257 0.0 6.0 0.00 0.00 0.00 66 1022.0
20260509004535 61 313 2.0 6.0 0.00 0.00 0.00 66 1022.0
20260509004014 61 224 2.0 6.0 0.00 0.00 0.00 65 1021.9
20260509003518 61 173 1.0 6.0 0.00 0.00 0.00 65 1021.9
20260509003034 61 205 2.0 6.0 0.00 0.00 0.00 65 1021.9
20260509002514 61 0 1.0 6.0 0.00 0.00 0.00 65 1021.9
20260509002014 61 240 1.0 7.0 0.00 0.00 0.00 65 1021.8
20260509001534 61 285 2.0 7.0 0.00 0.00 0.00 65 1021.9
20260509001015 61 271 1.0 6.0 0.00 0.00 0.00 65 1021.9
20260509000511 61 21 2.0 5.0 0.00 0.00 0.00 65 1021.9
20260509000030 61 327 1.0 6.0 0.00 0.00 0.00 64 1021.9
20260508235511 61 250 2.0 6.0 0.00 0.00 0.00 64 1021.8
20260508235014 61 186 1.0 6.0 0.00 0.00 0.00 64 1021.8
20260508234530 61 249 1.0 4.0 0.00 0.00 0.00 64 1021.9
20260508234014 62 225 1.0 5.0 0.00 0.00 0.00 63 1021.9
20260508233515 62 246 1.0 5.0 0.00 0.00 0.00 63 1021.9
20260508233033 62 340 2.0 6.0 0.00 0.00 0.00 63 1021.9
20260508232514 62 190 2.0 8.0 0.00 0.00 0.00 62 1021.9
20260508232013 63 194 3.0 7.0 0.00 0.00 0.00 61 1021.8
20260508231534 63 290 1.0 5.0 0.00 0.00 0.00 63 1021.8
20260508231015 63 205 1.0 8.0 0.00 0.00 0.00 62 1021.8
20260508230514 63 204 1.0 8.0 0.00 0.00 0.00 61 1021.8
20260508230049 63 244 1.0 5.0 0.00 0.00 0.00 62 1021.8
20260508225514 63 175 0.0 3.0 0.00 0.00 0.00 64 1021.8
20260508225014 62 9 1.0 4.0 0.00 0.00 0.00 63 1021.8
20260508224554 62 178 1.0 5.0 0.00 0.00 0.00 64 1021.8
20260508224015 62 309 1.0 5.0 0.00 0.00 0.00 64 1021.8
20260508223518 62 236 0.0 4.0 0.00 0.00 0.00 64 1021.7
20260508223033 61 296 2.0 8.0 0.00 0.00 0.00 63 1021.8
20260508222515 61 194 2.0 8.0 0.00 0.00 0.00 64 1021.9
20260508222016 61 214 2.0 7.0 0.00 0.00 0.00 64 1021.9
20260508221534 61 0 1.0 7.0 0.00 0.00 0.00 64 1021.9
20260508221019 61 239 1.0 7.0 0.00 0.00 0.00 63 1021.9
20260508220516 61 188 1.0 8.0 0.00 0.00 0.00 65 1021.9
20260508220033 60 234 1.0 8.0 0.00 0.00 0.00 64 1021.9
20260508215512 60 291 1.0 11.0 0.00 0.00 0.00 63 1021.9
20260508215014 61 360 3.0 11.0 0.00 0.00 0.00 62 1021.8
20260508214532 61 0 1.0 6.0 0.00 0.00 0.00 65 1021.8
20260508214019 61 192 1.0 5.0 0.00 0.00 0.00 63 1021.8
20260508213514 60 197 2.0 8.0 0.00 0.00 0.00 63 1021.9
20260508213031 60 0 1.0 8.0 0.00 0.00 0.00 65 1021.8
20260508212514 60 210 2.0 8.0 0.00 0.00 0.00 63 1021.9
20260508212013 60 178 2.0 7.0 0.00 0.00 0.00 63 1021.8
20260508211532 60 344 1.0 8.0 0.00 0.00 0.00 64 1021.7
20260508211011 60 225 3.0 8.0 0.00 0.00 0.00 63 1021.8
20260508210515 59 223 1.0 6.0 0.00 0.00 0.00 65 1021.7
20260508210034 59 352 1.0 9.0 0.00 0.00 0.00 64 1021.7
20260508205518 59 232 2.0 9.0 0.00 0.00 0.00 63 1021.6
20260508205013 59 197 3.0 9.0 0.00 0.00 0.00 64 1021.6
20260508204530 59 181 1.0 8.0 0.00 0.00 0.00 64 1021.5
20260508204015 59 304 1.0 8.0 0.00 0.00 0.00 64 1021.5
20260508203512 59 225 1.0 6.0 0.00 0.00 0.00 64 1021.5
20260508203032 59 188 1.0 9.0 0.00 0.00 0.00 64 1021.4
20260508202515 59 126 2.0 9.0 0.00 0.00 0.00 64 1021.4
20260508202015 59 196 1.0 8.0 0.00 0.00 0.00 64 1021.4
20260508201534 59 215 3.0 8.0 0.00 0.00 0.00 64 1021.4
20260508201017 59 222 3.0 6.0 0.00 0.00 0.00 63 1021.4
20260508200516 59 132 1.0 4.0 0.00 0.00 0.00 66 1021.4
20260508200043 59 193 1.0 9.0 0.00 0.00 0.00 66 1021.4
20260508195518 58 240 2.0 9.0 0.00 0.00 0.00 66 1021.3
20260508195016 58 202 2.0 8.0 0.00 0.00 0.00 65 1021.3
20260508194532 58 214 2.0 8.0 0.00 0.00 0.00 66 1021.3
20260508194014 58 207 1.0 8.0 0.00 0.00 0.00 68 1021.3
20260508193513 58 201 1.0 8.0 0.00 0.00 0.00 67 1021.3
20260508193101 57 24 1.0 2.0 0.00 0.00 0.00 68 1021.1
20260508192515 57 202 0.0 10.0 0.00 0.00 0.00 69 1021.3
20260508192017 57 244 2.0 10.0 0.00 0.00 0.00 68 1021.2
20260508191534 56 202 2.0 7.0 0.00 0.00 0.00 69 1021.2
20260508191018 56 238 2.0 7.0 0.00 0.00 0.00 69 1021.3
20260508190518 57 186 1.0 4.0 0.00 0.00 0.00 69 1021.3
20260508190037 56 309 0.0 2.0 0.00 0.00 0.00 70 1021.3
20260508185517 56 0 0.0 3.0 0.00 0.00 0.00 70 1021.3
20260508185015 56 232 1.0 3.0 0.00 0.00 0.00 71 1021.3
20260508184534 55 290 1.0 3.0 0.00 0.00 0.00 71 1021.3
20260508184014 55 196 0.0 8.0 0.00 0.00 0.00 71 1021.4
20260508183514 54 197 1.0 9.0 0.00 0.00 0.00 71 1021.4
20260508183036 54 13 3.0 9.0 0.00 0.00 0.00 70 1021.3
20260508182512 54 265 2.0 9.0 0.00 0.00 0.00 71 1021.4
20260508182015 54 225 1.0 5.0 0.00 0.00 0.00 71 1021.3
20260508181532 54 0 1.0 5.0 0.00 0.00 0.00 71 1021.3
20260508181016 54 321 1.0 5.0 0.00 0.00 0.00 71 1021.2
20260508180515 54 226 0.0 3.0 0.00 0.00 0.00 72 1021.1
20260508180033 54 186 0.0 6.0 0.00 0.00 0.00 71 1021.1
20260508175515 53 239 2.0 6.0 0.00 0.00 0.00 71 1021.1
20260508175018 53 224 1.0 5.0 0.00 0.00 0.00 72 1021.2
20260508174551 53 333 1.0 7.0 0.00 0.00 0.00 72 1021.1
20260508174016 53 0 2.0 7.0 0.00 0.00 0.00 72 1021.1
20260508173515 53 244 0.0 6.0 0.00 0.00 0.00 74 1021.1
20260508173034 52 352 0.0 6.0 0.00 0.00 0.00 73 1020.9
20260508172514 52 207 1.0 6.0 0.00 0.00 0.00 73 1021.0
20260508172016 52 223 0.0 5.0 0.00 0.00 0.00 73 1020.9
20260508171541 52 257 2.0 5.0 0.00 0.00 0.00 73 1020.9
20260508171018 52 219 1.0 3.0 0.00 0.00 0.00 73 1020.8
20260508170514 52 206 1.0 3.0 0.00 0.00 0.00 74 1020.5
20260508170038 52 0 0.0 2.0 0.00 0.00 0.00 74 1020.6
20260508165515 52 0 0.0 2.0 0.00 0.00 0.00 74 1020.5
20260508165015 52 0 1.0 3.0 0.00 0.00 0.00 73 1020.5
20260508164536 52 225 1.0 4.0 0.00 0.00 0.00 73 1020.7
20260508164015 52 238 1.0 4.0 0.00 0.00 0.00 73 1020.6
20260508163514 52 210 1.0 9.0 0.00 0.00 0.00 73 1020.6
20260508163035 52 151 2.0 9.0 0.00 0.00 0.00 73 1020.5
20260508162512 53 230 1.0 9.0 0.00 0.00 0.00 73 1020.4
20260508162014 53 236 2.0 9.0 0.00 0.00 0.00 72 1020.3
20260508161540 53 293 3.0 9.0 0.00 0.00 0.00 73 1020.2
20260508161015 52 0 1.0 6.0 0.00 0.00 0.00 73 1020.1
20260508160515 52 0 2.0 6.0 0.00 0.00 0.00 73 1019.9
20260508160036 52 206 2.0 8.0 0.00 0.00 0.00 74 1020.0
20260508155514 52 165 1.0 8.0 0.00 0.00 0.00 75 1020.0
20260508155015 52 258 3.0 8.0 0.00 0.00 0.00 74 1020.0
20260508154532 52 226 2.0 6.0 0.00 0.00 0.00 75 1020.0
20260508154015 52 236 0.0 6.0 0.00 0.00 0.00 76 1019.8
20260508153512 52 225 2.0 6.0 0.00 0.00 0.00 75 1019.8
20260508153037 51 214 1.0 6.0 0.00 0.00 0.00 76 1019.9
20260508152516 51 217 0.0 6.0 0.00 0.00 0.00 76 1019.8
20260508152018 51 241 2.0 6.0 0.00 0.00 0.00 76 1019.7
20260508151539 51 0 0.0 4.0 0.00 0.00 0.00 77 1019.8
20260508151019 51 225 0.0 3.0 0.00 0.00 0.00 78 1019.9
20260508150517 51 0 0.0 4.0 0.00 0.00 0.00 78 1019.7
20260508150032 51 0 0.0 9.0 0.00 0.00 0.00 77 1019.6
20260508145511 51 214 1.0 9.0 0.00 0.00 0.00 77 1019.6
20260508145019 51 243 1.0 9.0 0.00 0.00 0.00 77 1019.7
20260508144535 51 244 4.0 9.0 0.00 0.00 0.00 77 1019.8
20260508144014 51 0 0.0 4.0 0.00 0.00 0.00 78 1019.8
20260508143517 50 0 1.0 5.0 0.00 0.00 0.00 78 1019.9
20260508143033 50 248 1.0 5.0 0.00 0.00 0.00 78 1019.8
20260508142512 49 220 2.0 5.0 0.00 0.00 0.00 80 1019.8
20260508142014 49 231 1.0 5.0 0.00 0.00 0.00 86 1019.7
20260508141536 48 0 0.0 4.0 0.00 0.00 0.00 86 1019.6
20260508141017 47 0 0.0 4.0 0.00 0.00 0.00 86 1019.5
20260508140514 47 0 0.0 4.0 0.00 0.00 0.00 86 1019.5
20260508140030 46 214 0.0 2.0 0.00 0.00 0.00 86 1019.4
20260508135515 46 214 0.0 2.0 0.00 0.00 0.00 86 1019.4
20260508135013 46 0 0.0 3.0 0.00 0.00 0.00 86 1019.2
20260508134534 45 0 0.0 3.0 0.00 0.00 0.00 87 1019.1
20260508134014 45 217 0.0 3.0 0.00 0.00 0.00 87 1019.0
20260508133514 45 0 0.0 2.0 0.00 0.00 0.00 87 1019.0
20260508133056 45 121 0.0 2.0 0.00 0.00 0.00 87 1018.8
20260508132514 45 0 0.0 2.0 0.00 0.00 0.00 87 1018.8
20260508132020 44 0 0.0 2.0 0.00 0.00 0.00 88 1018.8
20260508131535 44 323 0.0 2.0 0.00 0.00 0.00 88 1018.7
20260508131014 44 0 0.0 2.0 0.00 0.00 0.00 88 1018.6
20260508130515 44 0 0.0 0.0 0.00 0.00 0.00 87 1018.6
20260508130034 44 0 0.0 0.0 0.00 0.00 0.00 87 1018.5
20260508125515 44 0 0.0 0.0 0.00 0.00 0.00 88 1018.3
20260508125015 44 0 0.0 0.0 0.00 0.00 0.00 88 1018.1
20260508124533 44 0 0.0 2.0 0.00 0.00 0.00 87 1018.1
20260508124015 44 0 0.0 2.0 0.00 0.00 0.00 87 1018.0
20260508123516 44 0 0.0 2.0 0.00 0.00 0.00 87 1018.1
20260508123034 44 323 0.0 2.0 0.00 0.00 0.00 87 1018.0
20260508122514 44 0 0.0 0.0 0.00 0.00 0.00 87 1018.1
20260508122014 44 0 0.0 0.0 0.00 0.00 0.00 87 1018.1
20260508121534 44 0 0.0 0.0 0.00 0.00 0.00 87 1018.1
20260508121016 44 0 0.0 0.0 0.00 0.00 0.00 87 1018.0
20260508120511 44 0 0.0 0.0 0.00 0.00 0.00 87 1017.9
20260508120034 44 0 0.0 0.0 0.00 0.00 0.00 87 1017.9
20260508115515 44 0 0.0 0.0 0.00 0.00 0.00 87 1018.0
20260508115015 45 0 0.0 0.0 0.00 0.00 0.00 86 1018.0
20260508114531 45 0 0.0 0.0 0.00 0.00 0.00 86 1017.8
20260508114015 45 0 0.0 0.0 0.00 0.00 0.00 86 1017.8
20260508113515 45 0 0.0 0.0 0.00 0.00 0.00 86 1017.7
20260508113039 45 0 0.0 0.0 0.00 0.00 0.00 86 1017.8
20260508112517 45 0 0.0 0.0 0.00 0.00 0.00 86 1017.6
20260508112014 45 0 0.0 0.0 0.00 0.00 0.00 86 1017.6
20260508111534 45 0 0.0 0.0 0.00 0.00 0.00 86 1017.5
20260508111015 45 0 0.0 0.0 0.00 0.00 0.00 86 1017.5
20260508110516 45 0 0.0 0.0 0.00 0.00 0.00 86 1017.4
20260508110034 45 0 0.0 0.0 0.00 0.00 0.00 86 1017.3
20260508105515 45 0 0.0 0.0 0.00 0.00 0.00 86 1017.3
20260508105015 46 0 0.0 0.0 0.00 0.00 0.00 86 1017.2
20260508104533 46 0 0.0 0.0 0.00 0.00 0.00 86 1017.3
20260508104015 46 0 0.0 0.0 0.00 0.00 0.00 85 1017.2
20260508103515 46 0 0.0 0.0 0.00 0.00 0.00 85 1017.1
20260508103032 46 0 0.0 0.0 0.00 0.00 0.00 85 1017.2
20260508102515 46 0 0.0 0.0 0.00 0.00 0.00 85 1017.0
20260508102015 46 0 0.0 0.0 0.00 0.00 0.00 85 1017.1
20260508101542 46 0 0.0 0.0 0.00 0.00 0.00 85 1017.1
20260508101015 46 0 0.0 0.0 0.00 0.00 0.00 85 1017.0
20260508100514 46 0 0.0 0.0 0.00 0.00 0.00 85 1017.1
20260508100032 46 0 0.0 0.0 0.00 0.00 0.00 85 1017.1
20260508095516 46 0 0.0 0.0 0.00 0.00 0.00 85 1017.1
20260508095015 46 0 0.0 0.0 0.00 0.00 0.00 85 1017.1
20260508094534 46 0 0.0 0.0 0.00 0.00 0.00 84 1017.1
20260508094018 47 0 0.0 0.0 0.00 0.00 0.00 84 1017.1
20260508093516 47 0 0.0 0.0 0.00 0.00 0.00 84 1017.1
20260508093032 47 0 0.0 0.0 0.00 0.00 0.00 84 1017.1
20260508092514 47 0 0.0 0.0 0.00 0.00 0.00 84 1017.0
20260508092015 47 0 0.0 0.0 0.00 0.00 0.00 84 1017.1
20260508091554 47 0 0.0 0.0 0.00 0.00 0.00 84 1017.0
20260508091014 47 0 0.0 0.0 0.00 0.00 0.00 84 1017.1
20260508090515 47 0 0.0 0.0 0.00 0.00 0.00 84 1017.0
20260508090030 47 0 0.0 0.0 0.00 0.00 0.00 84 1017.0
20260508085514 48 0 0.0 0.0 0.00 0.00 0.00 84 1017.0
20260508085015 48 0 0.0 0.0 0.00 0.00 0.00 84 1017.0
20260508084535 48 0 0.0 0.0 0.00 0.00 0.00 84 1017.0
20260508084021 48 0 0.0 0.0 0.00 0.00 0.00 84 1016.9
20260508083515 48 0 0.0 0.0 0.00 0.00 0.00 84 1017.0
20260508083037 48 0 0.0 0.0 0.00 0.00 0.00 84 1017.0
20260508082514 48 0 0.0 0.0 0.00 0.00 0.00 84 1017.0
20260508082015 48 0 0.0 0.0 0.00 0.00 0.00 84 1016.9
20260508081534 48 0 0.0 0.0 0.00 0.00 0.00 84 1017.0
20260508081015 48 0 0.0 0.0 0.00 0.00 0.00 84 1016.9
20260508080515 49 0 0.0 0.0 0.00 0.00 0.00 84 1017.0
20260508080030 49 0 0.0 0.0 0.00 0.00 0.00 83 1016.9
20260508075515 49 0 0.0 0.0 0.00 0.00 0.00 83 1016.8
20260508075021 49 0 0.0 0.0 0.00 0.00 0.00 83 1016.8
20260508074530 49 0 0.0 0.0 0.00 0.00 0.00 83 1016.8
20260508074015 49 0 0.0 0.0 0.00 0.00 0.00 83 1016.8
20260508073514 49 0 0.0 0.0 0.00 0.00 0.00 83 1016.7
20260508073035 49 0 0.0 0.0 0.00 0.00 0.00 83 1016.7
20260508072519 49 0 0.0 0.0 0.00 0.00 0.00 83 1016.7
20260508072016 49 0 0.0 0.0 0.00 0.00 0.00 83 1016.7
20260508071533 50 0 0.0 0.0 0.00 0.00 0.00 83 1016.7
20260508071018 50 0 0.0 0.0 0.00 0.00 0.00 82 1016.7